Tracking 35274 objects as of 11-Sep-2026
HD Live streaming from Space Station
objects crossing your sky now

COSMOS 1440 DEB


COSMOS 1440 DEB is no longer on orbit


NORAD ID: 13848
Int'l Code: 1983-009D
Launch date: February 10, 1983
Source: Commonwealth of Independent States (former USSR) (CIS)
Launch site: PLESETSK MISSILE AND SPACE COMPLEX (PKMTR)
Decay date: 1983-03-02

Note: This is SATELLITE DEBRIS
Your satellite tracking list
Your tracking list is empty




NASA's NSSDC Master Catalog

Two Line Element Set (TLE):
1 13848U 83009  D 83060.59781131  .04232037 +00406-5 +01557-3 0  9993
2 13848 082.3015 252.7609 0015672 222.0033 138.0047 16.27750587003104
Source of the keplerian elements: AFSPC